Starlink 30936

operational
NORAD ID: 58534 Int'l Des: 2023-192 Owner: SPXS Country: US Constellation: starlink
LEOCIRCULAR

关于 Starlink 30936

正在加载描述...

实时位置

正在加载3D地球...

即将过境

高度历史

Altitude vs Time

uPlot chart will show altitude changes over time

两行轨道根数

1 58534U 23192D 26035.75472611 .00000852 00000-0 40894-4 0 9995
2 58534 53.1589 205.7509 0000647 58.6135 301.4929 15.30197573121082
Epoch: Feb 4, 2026 • Age: 20 hours

当前状态

高度 475.7 km
速度 7.63 km/s
星下点 6.60°N, 36.23°E
发射日期 Dec 8, 2023
运行时间 2.1 years
类型 internet

技术详情

分类 Payload
质量 730.00 kg
干质量 700.00 kg
总质量 730.00 kg
长度 0.30 m
直径 4.10 m
跨度 29.00 m
形状 Box + pan
制造商 SPXS
平台类型 Starlink V2M
阶段状态 In Orbit
所有者/国家 SPXS/US

大型星座

Loading constellations...